Regional Weather Roundup
Issued by NWS Cleveland, OH

Home | Current Version | Previous Version | Graphics & Text | Print | Product List | Glossary On
Versions: 1 2 3 4 5 6 7 8 9 10 11 12 13 14 15 16 17 18 19 20 21 22 23 24 25 26 27 28 29 30 31 32 33 34 35 36 37 38 39 40 41 42 43 44 45 46 47 48 49 50
000
ASUS41 KCLE 020810
RWRCLE
OHIO REGIONAL WEATHER ROUNDUP
NATIONAL WEATHER SERVICE WILMINGTON, OH
400 AM EDT TUE SEP 02 2014

NOTE: "FAIR" INDICATES FEW OR NO CLOUDS BELOW 12,000 FEET WITH NO
SIGNIFICANT WEATHER AND/OR OBSTRUCTIONS TO VISIBILITY.

OHZ001>008-015>018-024>027-034-035-043-044-020900-
   NORTHWEST OHIO

CITY           SKY/WX    TMP DP  RH WIND       PRES   REMARKS
DEFIANCE       MOCLDY    69  64  84 SW6       29.90F
FINDLAY        CLEAR     69  66  90 SW6       29.91S
TOLEDO EXPRESS PTCLDY    71  65  81 W7        29.87F
TOLEDO METCALF CLEAR     71  66  84 SW7       29.89R
LIMA           PTCLDY    72  69  90 SW8       29.94S
$$

OHZ009>014-019>023-028>033-038-089-020900-
   NORTHEAST OHIO

CITY           SKY/WX    TMP DP  RH WIND       PRES   REMARKS
CLE-HOPKINS    MOCLDY    74  69  85 SW10      29.92R
CLE-LAKEFRONT  MOCLDY    77  69  76 SW13      29.88R
CUY CO. ARPT   NOT AVBL
LORAIN-ELYRIA  CLEAR     75  69  81 W10       29.94R
ASHTABULA      PTCLDY    72  70  93 SW7       29.90S
AKRON-CANTON   MOCLDY    73  69  87 SW9       29.94R
WOOSTER        CLEAR     71  69  93 SW8       29.96R
MANSFIELD      PTCLDY    72  70  93 SW9       29.96R
YOUNGSTOWN     PTCLDY    72  69  90 SW9       29.92F
$$

OHZ042-051>053-060>062-070>072-077>081-020900-
  SOUTHWEST OHIO

CITY           SKY/WX    TMP DP  RH WIND       PRES   REMARKS
CINC-COVINGTON CLOUDY    76  71  85 S7        29.97S
CINC-LUNKEN    CLOUDY    76  71  85 SW8       29.96S
HAMILTON       CLOUDY    74  72  93 CALM      29.96F
DAYTON         MOCLDY    73  70  90 SW6       29.97F
WRIGHT-PAT AFB MOCLDY    73  71  95 SW7       29.96S
DAYTON GENERAL MOCLDY    74  71  91 SW8       29.96S
WILMINGTON     PTCLDY    70  68  93 SW7       29.97F
$$

OHZ036-037-039>041-045>050-054>059-063>069-073>076-082>088-020900-
  CENTRAL AND SOUTHEAST OHIO

CITY           SKY/WX    TMP DP  RH WIND       PRES   REMARKS
COLUMBUS       MOCLDY    76  70  82 SW7       29.96S
OSU AIRPORT    MOCLDY    73  69  87 S6        29.95S
BOLTON FIELD   PTCLDY    70  70 100 S5        29.96F
RICKENBACK AFB PTCLDY    72  66  82 S5        29.95F
NEWARK         CLEAR     70  68  93 CALM      29.96S
MARION         CLEAR     71  68  90 S6        29.94F
LANCASTER      PTCLDY    74  70  87 SW6       29.97F
ZANESVILLE     CLEAR     70  68  93 S5        29.97S
NEW PHILLY     CLEAR     72  70  93 VRB6      29.96R
$$


USA.gov is the U.S. government's official web portal to all federal, state and local government web resources and services.